Knox, IN

8:04 AM CDT on August 23, 2017 (GMT -0500)
Starke County

Weather History for KOXI - March, 2013

Change the Weather History Date:

Wednesday, March 6, 2013

  Actual Average (KRCR) Record (KRCR)
Temperature  
Mean Temperature 30 °F -  
Max Temperature 33 °F 41 °F 60 °F (2017)
Min Temperature 27 °F 24 °F 1 °F (2015)
Degree Days  
Heating Degree Days 35    
Moisture  
Dew Point 29 °F    
Average Humidity 93    
Maximum Humidity 99    
Minimum Humidity 83    
Precipitation  
Precipitation 0.00 in - - ()
Sea Level Pressure  
Sea Level Pressure 30.13 in    
Wind  
Wind Speed 14 mph (NNW)    
Max Wind Speed 20 mph    
Max Gust Speed 25 mph    
Visibility 8 miles    
Events      
Averages and records for this station are not official NWS values.
T = Trace of Precipitation, MM = Missing Value Source: NWS Daily Summary

Daily Weather History Graph

Daily Weather History Graph

Search for Another Location

Airport or City:

Trip Planner

Search our weather history database for the weather conditions in past years. The results will help you decide how hot, cold, wet, or windy it might be!

Date:

Astronomy

Mar. 06, 2013 Rise Set
Actual Time 6:12 AM CST 5:43 PM CST
Civil Twilight 5:45 AM CST 6:11 PM CST
Nautical Twilight 5:13 AM CST 6:43 PM CST
Astronomical Twilight 4:41 AM CST 7:15 PM CST
Moon 2:24 AM CST (3/6) 12:22 PM CST (3/6)
Length of Visible Light 12h 25m
Length of Day
11h 30m
Waning Crescent, 29% of the Moon is Illuminated
Mar 6
Waning Crescent
Mar 11
New
Mar 19
First Quarter
Mar 27
Full
Apr 2
Last Quarter

Hourly Weather History & Observations

Time (CST) Temp. Windchill Dew Point Humidity Pressure Visibility Wind Dir Wind Speed Gust Speed Precip Events Conditions
12:15 AM 27.9 °F 15.9 °F 26.4 °F 94% 29.89 in 4.0 mi North 16.1 mph - N/A   Overcast
12:35 AM 27.9 °F 16.8 °F 26.6 °F 95% 29.89 in 5.0 mi North 13.8 mph - N/A   Overcast
12:55 AM 28.0 °F 16.5 °F 26.4 °F 94% 29.90 in 5.0 mi North 15.0 mph - N/A   Overcast
1:15 AM 27.5 °F 15.9 °F 25.9 °F 94% 29.91 in 7.0 mi North 15.0 mph - N/A   Overcast
1:35 AM 27.5 °F 16.3 °F 25.7 °F 93% 29.92 in 5.0 mi North 13.8 mph - N/A   Overcast
1:55 AM 27.5 °F 15.4 °F 25.7 °F 93% 29.93 in 7.0 mi North 16.1 mph - N/A   Overcast
2:15 AM 27.5 °F 16.3 °F 25.5 °F 92% 29.93 in 10.0 mi North 13.8 mph - N/A   Overcast
2:35 AM 27.7 °F 15.2 °F 25.5 °F 92% 29.94 in 10.0 mi North 17.3 mph - N/A   Overcast
2:55 AM 27.5 °F 15.0 °F 25.5 °F 92% 29.95 in 10.0 mi North 17.3 mph - N/A   Overcast
3:15 AM 27.5 °F 15.4 °F 25.2 °F 91% 29.95 in 10.0 mi North 16.1 mph - N/A   Overcast
3:35 AM 27.5 °F 15.4 °F 24.8 °F 90% 29.96 in 10.0 mi North 16.1 mph 21.9 mph N/A   Overcast
3:55 AM 27.5 °F 15.4 °F 24.8 °F 90% 29.97 in 10.0 mi North 16.1 mph - N/A   Overcast
4:15 AM 27.7 °F 16.1 °F 25.3 °F 91% 29.98 in 10.0 mi North 15.0 mph - N/A   Overcast
4:35 AM 27.9 °F 16.3 °F 25.7 °F 92% 30.00 in 10.0 mi North 15.0 mph - N/A   Overcast
4:55 AM 28.2 °F 16.3 °F 26.1 °F 92% 30.01 in 10.0 mi North 16.1 mph - N/A   Overcast
5:15 AM 28.4 °F 17.0 °F 26.2 °F 92% 30.02 in 10.0 mi North 15.0 mph - N/A   Overcast
5:35 AM 28.8 °F 17.5 °F 26.4 °F 91% 30.03 in 10.0 mi North 15.0 mph - N/A   Overcast
5:55 AM 29.1 °F 17.5 °F 26.8 °F 91% 30.05 in 10.0 mi North 16.1 mph - N/A   Overcast
6:15 AM 29.5 °F 18.8 °F 27.3 °F 92% 30.06 in 10.0 mi North 13.8 mph - N/A   Overcast
6:35 AM 30.0 °F 17.5 °F 27.5 °F 90% 30.06 in 10.0 mi North 19.6 mph 23.0 mph N/A   Overcast
6:55 AM 30.4 °F 18.0 °F 27.9 °F 90% 30.08 in 10.0 mi North 19.6 mph 25.3 mph N/A   Overcast
7:15 AM 30.6 °F 19.4 °F 28.2 °F 91% 30.08 in 10.0 mi North 16.1 mph - N/A   Overcast
7:35 AM 30.7 °F 19.2 °F 28.4 °F 91% 30.09 in 7.0 mi North 17.3 mph 20.7 mph N/A   Overcast
7:55 AM 30.7 °F 20.4 °F 29.1 °F 94% 30.10 in 5.0 mi North 13.8 mph - N/A   Overcast
8:15 AM 30.9 °F 22.8 °F 29.3 °F 94% 30.11 in 10.0 mi North 9.2 mph - N/A   Overcast
8:35 AM 31.5 °F 21.8 °F 29.1 °F 91% 30.11 in 10.0 mi North 12.7 mph - N/A   Overcast
8:55 AM 31.8 °F 21.8 °F 28.8 °F 88% 30.12 in 10.0 mi North 13.8 mph - N/A   Overcast
9:15 AM 32.0 °F 22.5 °F 28.4 °F 87% 30.13 in 10.0 mi North 12.7 mph - N/A   Overcast
9:35 AM 32.0 °F 23.6 °F 28.9 °F 88% 30.14 in 10.0 mi North 10.4 mph - N/A   Overcast
9:55 AM 32.4 °F 24.0 °F 29.1 °F 88% 30.14 in 10.0 mi North 10.4 mph - N/A   Overcast
10:15 AM 32.7 °F 23.4 °F 29.1 °F 87% 30.15 in 10.0 mi North 12.7 mph - N/A   Overcast
10:35 AM 33.1 °F 24.4 °F 28.9 °F 85% 30.16 in 10.0 mi NNW 11.5 mph - N/A   Overcast
11:15 AM 33.4 °F 23.9 °F 28.9 °F 84% 30.17 in 10.0 mi North 13.8 mph - N/A   Overcast
11:35 AM 33.6 °F 24.6 °F 28.9 °F 83% 30.18 in 10.0 mi North 12.7 mph - N/A   Overcast
11:55 AM 33.6 °F 26.8 °F 29.3 °F 84% 30.17 in 10.0 mi North 8.1 mph - N/A   Overcast
12:15 PM 33.8 °F 25.8 °F 29.5 °F 84% 30.17 in 10.0 mi NNW 10.4 mph - N/A   Overcast
12:35 PM 32.7 °F 22.1 °F 30.0 °F 90% 30.17 in 10.0 mi NW 16.1 mph - N/A   Overcast
1:15 PM 32.0 °F 22.5 °F 30.0 °F 92% 30.16 in 10.0 mi NW 12.7 mph 19.6 mph N/A   Overcast
1:35 PM 32.0 °F 22.5 °F 30.0 °F 92% 30.17 in 10.0 mi NW 12.7 mph 18.4 mph N/A   Overcast
1:55 PM 32.2 °F 23.2 °F 30.2 °F 92% 30.17 in 10.0 mi NW 11.5 mph - N/A   Overcast
2:15 PM 32.5 °F 23.7 °F 30.7 °F 93% 30.17 in 10.0 mi NW 11.5 mph - N/A   Overcast
2:35 PM 32.5 °F 24.8 °F 30.9 °F 94% 30.18 in 10.0 mi NW 9.2 mph - N/A   Overcast
2:55 PM 32.9 °F 25.3 °F 31.3 °F 94% 30.18 in 10.0 mi WNW 9.2 mph - N/A   Overcast
3:15 PM 33.3 °F 25.1 °F 31.3 °F 92% 30.19 in 10.0 mi WNW 10.4 mph - N/A   Overcast
3:35 PM 33.4 °F 25.4 °F 31.3 °F 92% 30.19 in 10.0 mi WNW 10.4 mph - N/A   Overcast
3:55 PM 33.1 °F 24.9 °F 31.8 °F 95% 30.19 in 10.0 mi NW 10.4 mph - N/A   Overcast
4:15 PM 32.5 °F 24.8 °F 32.0 °F 98% 30.20 in 7.0 mi NW 9.2 mph - N/A   Overcast
4:35 PM 32.4 °F 24.0 °F 32.0 °F 99% 30.20 in 5.0 mi WNW 10.4 mph - N/A   Overcast
4:55 PM 32.0 °F 23.0 °F 31.6 °F 99% 30.21 in 4.0 mi NW 11.5 mph - N/A   Overcast
5:15 PM 32.0 °F 24.2 °F 31.8 °F 99% 30.22 in 1.2 mi NW 9.2 mph - N/A   Overcast
5:35 PM 32.0 °F 24.8 °F 31.8 °F 99% 30.23 in 0.8 mi NW 8.1 mph - N/A   Overcast
5:55 PM 32.0 °F 26.4 °F 31.8 °F 99% 30.23 in 0.8 mi NW 5.8 mph - N/A   Overcast
6:15 PM 32.0 °F 24.2 °F 31.8 °F 99% 30.23 in 4.0 mi NW 9.2 mph - N/A   Overcast
6:35 PM 32.0 °F 23.6 °F 31.6 °F 99% 30.24 in 10.0 mi NW 10.4 mph - N/A   Overcast
6:55 PM 32.0 °F 24.8 °F 31.5 °F 98% 30.23 in 7.0 mi NW 8.1 mph - N/A   Overcast
7:15 PM 32.0 °F 23.6 °F 31.5 °F 98% 30.24 in 2.0 mi WNW 10.4 mph - N/A   Overcast
7:35 PM 31.8 °F 23.9 °F 31.3 °F 98% 30.25 in 2.0 mi NW 9.2 mph - N/A   Overcast
7:55 PM 31.8 °F 23.3 °F 31.1 °F 97% 30.25 in 7.0 mi WNW 10.4 mph - N/A   Overcast
8:15 PM 32.0 °F 24.2 °F 30.6 °F 94% 30.26 in 10.0 mi NW 9.2 mph - N/A   Overcast
8:35 PM 32.0 °F 23.6 °F 30.0 °F 92% 30.25 in 10.0 mi NW 10.4 mph - N/A   Overcast
9:15 PM 32.0 °F 23.6 °F 30.2 °F 93% 30.25 in 10.0 mi NW 10.4 mph - N/A   Overcast
9:35 PM 31.8 °F 23.3 °F 30.0 °F 93% 30.25 in 10.0 mi NW 10.4 mph - N/A   Overcast
9:55 PM 31.6 °F 23.7 °F 30.0 °F 94% 30.26 in 10.0 mi NW 9.2 mph - N/A   Overcast
10:15 PM 31.6 °F 23.1 °F 30.2 °F 94% 30.26 in 7.0 mi NW 10.4 mph - N/A   Overcast
10:35 PM 31.5 °F 24.2 °F 30.0 °F 94% 30.26 in 10.0 mi NW 8.1 mph - N/A   Overcast
10:55 PM 31.5 °F 23.5 °F 30.0 °F 94% 30.26 in 10.0 mi NW 9.2 mph - N/A   Overcast
11:15 PM 31.5 °F 22.9 °F 29.8 °F 94% 30.26 in 10.0 mi NW 10.4 mph - N/A   Overcast
11:35 PM 31.5 °F 23.5 °F 29.7 °F 93% 30.26 in 10.0 mi NW 9.2 mph - N/A   Overcast
11:55 PM 31.3 °F 23.9 °F 29.7 °F 94% 30.25 in 10.0 mi NW 8.1 mph - N/A   Overcast